owner,sensor,date,latitude,longitude,vertical_datum,sea_water_temperature,qcFlag 
ENP,ioos.station.NOAA.NDBC:BOBF1:1,2019-10-01T00:00:00Z,25.0270,-80.6810,1.0,28.09,11111222 
ENP,ioos.station.NOAA.NDBC:BOBF1:1,2019-10-01T02:00:00Z,25.0270,-80.6810,1.0,27.72,11111222 
ENP,ioos.station.NOAA.NDBC:BOBF1:1,2019-10-01T04:00:00Z,25.0270,-80.6810,1.0,27.3,11111222 
ENP,ioos.station.NOAA.NDBC:BOBF1:1,2019-10-01T05:00:00Z,25.0270,-80.6810,1.0,27.33,11111222 
ENP,ioos.station.NOAA.NDBC:BOBF1:1,2019-10-01T06:00:00Z,25.0270,-80.6810,1.0,27.46,11111222 
ENP,ioos.station.NOAA.NDBC:BOBF1:1,2019-10-01T07:00:00Z,25.0270,-80.6810,1.0,27.43,11111222 
ENP,ioos.station.NOAA.NDBC:BOBF1:1,2019-10-01T08:00:00Z,25.0270,-80.6810,1.0,27.37,11111222 
ENP,ioos.station.NOAA.NDBC:BOBF1:1,2019-10-01T09:00:00Z,25.0270,-80.6810,1.0,27.09,11111222 
ENP,ioos.station.NOAA.NDBC:BOBF1:1,2019-10-01T10:00:00Z,25.0270,-80.6810,1.0,26.81,11111222 
ENP,ioos.station.NOAA.NDBC:BOBF1:1,2019-10-01T11:00:00Z,25.0270,-80.6810,1.0,26.37,11111222 
ENP,ioos.station.NOAA.NDBC:BOBF1:1,2019-10-01T12:00:00Z,25.0270,-80.6810,1.0,26.03,11111222 
ENP,ioos.station.NOAA.NDBC:BOBF1:1,2019-10-01T13:00:00Z,25.0270,-80.6810,1.0,26.24,11111222 
ENP,ioos.station.NOAA.NDBC:BOBF1:1,2019-10-01T14:00:00Z,25.0270,-80.6810,1.0,26.62,11111222 
ENP,ioos.station.NOAA.NDBC:BOBF1:1,2019-10-01T15:00:00Z,25.0270,-80.6810,1.0,26.67,11111222 
ENP,ioos.station.NOAA.NDBC:BOBF1:1,2019-10-01T17:00:00Z,25.0270,-80.6810,1.0,27.02,11111222 
ENP,ioos.station.NOAA.NDBC:BOBF1:1,2019-10-01T18:00:00Z,25.0270,-80.6810,1.0,27.31,11111222 
ENP,ioos.station.NOAA.NDBC:BOBF1:1,2019-10-01T19:00:00Z,25.0270,-80.6810,1.0,27.92,11111222 
ENP,ioos.station.NOAA.NDBC:BOBF1:1,2019-10-01T20:00:00Z,25.0270,-80.6810,1.0,28.08,11111222 
ENP,ioos.station.NOAA.NDBC:BOBF1:1,2019-10-01T21:00:00Z,25.0270,-80.6810,1.0,28.51,11111222 
ENP,ioos.station.NOAA.NDBC:BOBF1:1,2019-10-01T22:00:00Z,25.0270,-80.6810,1.0,28.37,11111222 
ENP,ioos.station.NOAA.NDBC:BOBF1:1,2019-10-01T23:00:00Z,25.0270,-80.6810,1.0,28.53,11111222 
ENP,ioos.station.NOAA.NDBC:BOBF1:1,2019-10-02T00:00:00Z,25.0270,-80.6810,1.0,28.1,11111222 
ENP,ioos.station.NOAA.NDBC:BOBF1:1,2019-10-02T02:00:00Z,25.0270,-80.6810,1.0,27.29,11111222 
ENP,ioos.station.NOAA.NDBC:BOBF1:1,2019-10-02T04:00:00Z,25.0270,-80.6810,1.0,27.3,11111222 
ENP,ioos.station.NOAA.NDBC:BOBF1:1,2019-10-02T05:00:00Z,25.0270,-80.6810,1.0,27.48,11111222 
ENP,ioos.station.NOAA.NDBC:BOBF1:1,2019-10-02T06:00:00Z,25.0270,-80.6810,1.0,27.5,11111222 
ENP,ioos.station.NOAA.NDBC:BOBF1:1,2019-10-02T07:00:00Z,25.0270,-80.6810,1.0,27.39,11111222 
ENP,ioos.station.NOAA.NDBC:BOBF1:1,2019-10-02T08:00:00Z,25.0270,-80.6810,1.0,27.28,11111222 
ENP,ioos.station.NOAA.NDBC:BOBF1:1,2019-10-02T09:00:00Z,25.0270,-80.6810,1.0,27.2,11111222 
ENP,ioos.station.NOAA.NDBC:BOBF1:1,2019-10-02T10:00:00Z,25.0270,-80.6810,1.0,27.07,11111222 
ENP,ioos.station.NOAA.NDBC:BOBF1:1,2019-10-02T11:00:00Z,25.0270,-80.6810,1.0,26.89,11111222 
ENP,ioos.station.NOAA.NDBC:BOBF1:1,2019-10-02T12:00:00Z,25.0270,-80.6810,1.0,26.73,11111222 
ENP,ioos.station.NOAA.NDBC:BOBF1:1,2019-10-02T13:00:00Z,25.0270,-80.6810,1.0,26.85,11111222 
ENP,ioos.station.NOAA.NDBC:BOBF1:1,2019-10-02T14:00:00Z,25.0270,-80.6810,1.0,27.01,11111222 
ENP,ioos.station.NOAA.NDBC:BOBF1:1,2019-10-02T15:00:00Z,25.0270,-80.6810,1.0,27.3,11111222 
ENP,ioos.station.NOAA.NDBC:BOBF1:1,2019-10-02T17:00:00Z,25.0270,-80.6810,1.0,27.98,11111222 
ENP,ioos.station.NOAA.NDBC:BOBF1:1,2019-10-02T18:00:00Z,25.0270,-80.6810,1.0,27.84,11111222 
ENP,ioos.station.NOAA.NDBC:BOBF1:1,2019-10-02T19:00:00Z,25.0270,-80.6810,1.0,28.22,11111222 
ENP,ioos.station.NOAA.NDBC:BOBF1:1,2019-10-02T20:00:00Z,25.0270,-80.6810,1.0,28.52,11111222 
ENP,ioos.station.NOAA.NDBC:BOBF1:1,2019-10-02T21:00:00Z,25.0270,-80.6810,1.0,28.72,11111222 
ENP,ioos.station.NOAA.NDBC:BOBF1:1,2019-10-02T22:00:00Z,25.0270,-80.6810,1.0,28.83,11111222 
ENP,ioos.station.NOAA.NDBC:BOBF1:1,2019-10-02T23:00:00Z,25.0270,-80.6810,1.0,28.83,11111222 
ENP,ioos.station.NOAA.NDBC:BOBF1:1,2019-10-03T04:00:00Z,25.0270,-80.6810,1.0,28.2,11111222 
ENP,ioos.station.NOAA.NDBC:BOBF1:1,2019-10-03T05:00:00Z,25.0270,-80.6810,1.0,27.81,11111222 
ENP,ioos.station.NOAA.NDBC:BOBF1:1,2019-10-03T17:00:00Z,25.0270,-80.6810,1.0,28.45,11111222 
ENP,ioos.station.NOAA.NDBC:BOBF1:1,2019-10-03T18:00:00Z,25.0270,-80.6810,1.0,28.67,11111222 
ENP,ioos.station.NOAA.NDBC:BOBF1:1,2019-10-03T19:00:00Z,25.0270,-80.6810,1.0,28.7,11111222 
ENP,ioos.station.NOAA.NDBC:BOBF1:1,2019-10-03T20:00:00Z,25.0270,-80.6810,1.0,28.78,11111222 
ENP,ioos.station.NOAA.NDBC:BOBF1:1,2019-10-03T21:00:00Z,25.0270,-80.6810,1.0,28.83,11111222 
ENP,ioos.station.NOAA.NDBC:BOBF1:1,2019-10-03T22:00:00Z,25.0270,-80.6810,1.0,28.93,11111222 
ENP,ioos.station.NOAA.NDBC:BOBF1:1,2019-10-03T23:00:00Z,25.0270,-80.6810,1.0,28.9,11111222 
ENP,ioos.station.NOAA.NDBC:BOBF1:1,2019-10-04T00:00:00Z,25.0270,-80.6810,1.0,29.01,11111222 
ENP,ioos.station.NOAA.NDBC:BOBF1:1,2019-10-04T02:00:00Z,25.0270,-80.6810,1.0,28.31,11111222 
ENP,ioos.station.NOAA.NDBC:BOBF1:1,2019-10-04T04:00:00Z,25.0270,-80.6810,1.0,28.23,11111222 
ENP,ioos.station.NOAA.NDBC:BOBF1:1,2019-10-04T05:00:00Z,25.0270,-80.6810,1.0,28.21,11111222 
ENP,ioos.station.NOAA.NDBC:BOBF1:1,2019-10-04T06:00:00Z,25.0270,-80.6810,1.0,28.17,11111222 
ENP,ioos.station.NOAA.NDBC:BOBF1:1,2019-10-04T07:00:00Z,25.0270,-80.6810,1.0,27.65,11111222 
ENP,ioos.station.NOAA.NDBC:BOBF1:1,2019-10-04T08:00:00Z,25.0270,-80.6810,1.0,27.52,11111222 
ENP,ioos.station.NOAA.NDBC:BOBF1:1,2019-10-04T09:00:00Z,25.0270,-80.6810,1.0,27.46,11111222 
ENP,ioos.station.NOAA.NDBC:BOBF1:1,2019-10-04T10:00:00Z,25.0270,-80.6810,1.0,27.44,11111222 
ENP,ioos.station.NOAA.NDBC:BOBF1:1,2019-10-04T11:00:00Z,25.0270,-80.6810,1.0,27.41,11111222 
ENP,ioos.station.NOAA.NDBC:BOBF1:1,2019-10-04T12:00:00Z,25.0270,-80.6810,1.0,27.29,11111222 
ENP,ioos.station.NOAA.NDBC:BOBF1:1,2019-10-04T13:00:00Z,25.0270,-80.6810,1.0,27.28,11111222 
ENP,ioos.station.NOAA.NDBC:BOBF1:1,2019-10-04T14:00:00Z,25.0270,-80.6810,1.0,27.49,11111222 
ENP,ioos.station.NOAA.NDBC:BOBF1:1,2019-10-04T15:00:00Z,25.0270,-80.6810,1.0,27.88,11111222 
ENP,ioos.station.NOAA.NDBC:BOBF1:1,2019-10-04T16:00:00Z,25.0270,-80.6810,1.0,28.36,11111222 
ENP,ioos.station.NOAA.NDBC:BOBF1:1,2019-10-04T17:00:00Z,25.0270,-80.6810,1.0,28.72,11111222 
ENP,ioos.station.NOAA.NDBC:BOBF1:1,2019-10-04T18:00:00Z,25.0270,-80.6810,1.0,29.27,11111222 
ENP,ioos.station.NOAA.NDBC:BOBF1:1,2019-10-04T19:00:00Z,25.0270,-80.6810,1.0,29.8,11111222 
ENP,ioos.station.NOAA.NDBC:BOBF1:1,2019-10-04T20:00:00Z,25.0270,-80.6810,1.0,29.98,11111222 
ENP,ioos.station.NOAA.NDBC:BOBF1:1,2019-10-04T22:00:00Z,25.0270,-80.6810,1.0,29.8,11111222 
ENP,ioos.station.NOAA.NDBC:BOBF1:1,2019-10-04T23:00:00Z,25.0270,-80.6810,1.0,29.63,11111222 
ENP,ioos.station.NOAA.NDBC:BOBF1:1,2019-10-05T00:00:00Z,25.0270,-80.6810,1.0,29.67,11111222 
ENP,ioos.station.NOAA.NDBC:BOBF1:1,2019-10-05T02:00:00Z,25.0270,-80.6810,1.0,29.36,11111222 
ENP,ioos.station.NOAA.NDBC:BOBF1:1,2019-10-05T04:00:00Z,25.0270,-80.6810,1.0,28.54,11111222 
ENP,ioos.station.NOAA.NDBC:BOBF1:1,2019-10-05T05:00:00Z,25.0270,-80.6810,1.0,28.36,11111222 
ENP,ioos.station.NOAA.NDBC:BOBF1:1,2019-10-05T06:00:00Z,25.0270,-80.6810,1.0,28.35,11111222 
ENP,ioos.station.NOAA.NDBC:BOBF1:1,2019-10-05T07:00:00Z,25.0270,-80.6810,1.0,28.44,11111222 
ENP,ioos.station.NOAA.NDBC:BOBF1:1,2019-10-05T08:00:00Z,25.0270,-80.6810,1.0,28.23,11111222 
ENP,ioos.station.NOAA.NDBC:BOBF1:1,2019-10-05T09:00:00Z,25.0270,-80.6810,1.0,27.95,11111222 
ENP,ioos.station.NOAA.NDBC:BOBF1:1,2019-10-05T10:00:00Z,25.0270,-80.6810,1.0,27.91,11111222 
ENP,ioos.station.NOAA.NDBC:BOBF1:1,2019-10-05T11:00:00Z,25.0270,-80.6810,1.0,27.85,11111222 
ENP,ioos.station.NOAA.NDBC:BOBF1:1,2019-10-05T12:00:00Z,25.0270,-80.6810,1.0,27.78,11111222 
ENP,ioos.station.NOAA.NDBC:BOBF1:1,2019-10-05T13:00:00Z,25.0270,-80.6810,1.0,27.73,11111222 
ENP,ioos.station.NOAA.NDBC:BOBF1:1,2019-10-05T14:00:00Z,25.0270,-80.6810,1.0,27.86,11111222 
ENP,ioos.station.NOAA.NDBC:BOBF1:1,2019-10-05T15:00:00Z,25.0270,-80.6810,1.0,28.01,11111222 
ENP,ioos.station.NOAA.NDBC:BOBF1:1,2019-10-05T16:00:00Z,25.0270,-80.6810,1.0,28.48,11111222 
ENP,ioos.station.NOAA.NDBC:BOBF1:1,2019-10-05T17:00:00Z,25.0270,-80.6810,1.0,28.85,11111222 
ENP,ioos.station.NOAA.NDBC:BOBF1:1,2019-10-05T18:00:00Z,25.0270,-80.6810,1.0,29.32,11111222 
ENP,ioos.station.NOAA.NDBC:BOBF1:1,2019-10-05T19:00:00Z,25.0270,-80.6810,1.0,29.57,11111222 
ENP,ioos.station.NOAA.NDBC:BOBF1:1,2019-10-05T20:00:00Z,25.0270,-80.6810,1.0,29.96,11111222 
ENP,ioos.station.NOAA.NDBC:BOBF1:1,2019-10-05T21:00:00Z,25.0270,-80.6810,1.0,30.69,11111222 
ENP,ioos.station.NOAA.NDBC:BOBF1:1,2019-10-05T22:00:00Z,25.0270,-80.6810,1.0,30.42,11111222 
ENP,ioos.station.NOAA.NDBC:BOBF1:1,2019-10-05T23:00:00Z,25.0270,-80.6810,1.0,30.03,11111222 
ENP,ioos.station.NOAA.NDBC:BOBF1:1,2019-10-06T00:00:00Z,25.0270,-80.6810,1.0,29.77,11111222 
ENP,ioos.station.NOAA.NDBC:BOBF1:1,2019-10-06T01:00:00Z,25.0270,-80.6810,1.0,29.89,11111222 
ENP,ioos.station.NOAA.NDBC:BOBF1:1,2019-10-06T02:00:00Z,25.0270,-80.6810,1.0,29.36,11111222 
ENP,ioos.station.NOAA.NDBC:BOBF1:1,2019-10-06T04:00:00Z,25.0270,-80.6810,1.0,28.54,11111222 
ENP,ioos.station.NOAA.NDBC:BOBF1:1,2019-10-06T05:00:00Z,25.0270,-80.6810,1.0,28.44,11111222 
ENP,ioos.station.NOAA.NDBC:BOBF1:1,2019-10-06T06:00:00Z,25.0270,-80.6810,1.0,28.24,11111222 
ENP,ioos.station.NOAA.NDBC:BOBF1:1,2019-10-06T07:00:00Z,25.0270,-80.6810,1.0,28.05,11111222 
ENP,ioos.station.NOAA.NDBC:BOBF1:1,2019-10-06T08:00:00Z,25.0270,-80.6810,1.0,28.27,11111222 
ENP,ioos.station.NOAA.NDBC:BOBF1:1,2019-10-06T09:00:00Z,25.0270,-80.6810,1.0,28.21,11111222 
ENP,ioos.station.NOAA.NDBC:BOBF1:1,2019-10-06T10:00:00Z,25.0270,-80.6810,1.0,28.1,11111222 
ENP,ioos.station.NOAA.NDBC:BOBF1:1,2019-10-06T11:00:00Z,25.0270,-80.6810,1.0,27.86,11111222 
ENP,ioos.station.NOAA.NDBC:BOBF1:1,2019-10-06T12:00:00Z,25.0270,-80.6810,1.0,27.75,11111222 
ENP,ioos.station.NOAA.NDBC:BOBF1:1,2019-10-06T13:00:00Z,25.0270,-80.6810,1.0,27.75,11111222 
ENP,ioos.station.NOAA.NDBC:BOBF1:1,2019-10-06T14:00:00Z,25.0270,-80.6810,1.0,27.87,11111222 
ENP,ioos.station.NOAA.NDBC:BOBF1:1,2019-10-06T15:00:00Z,25.0270,-80.6810,1.0,27.98,11111222 
ENP,ioos.station.NOAA.NDBC:BOBF1:1,2019-10-06T16:00:00Z,25.0270,-80.6810,1.0,28.34,11111222 
ENP,ioos.station.NOAA.NDBC:BOBF1:1,2019-10-06T17:00:00Z,25.0270,-80.6810,1.0,28.56,11111222 
ENP,ioos.station.NOAA.NDBC:BOBF1:1,2019-10-06T18:00:00Z,25.0270,-80.6810,1.0,28.79,11111222 
ENP,ioos.station.NOAA.NDBC:BOBF1:1,2019-10-06T19:00:00Z,25.0270,-80.6810,1.0,29.02,11111222 
ENP,ioos.station.NOAA.NDBC:BOBF1:1,2019-10-06T20:00:00Z,25.0270,-80.6810,1.0,29.3,11111222 
ENP,ioos.station.NOAA.NDBC:BOBF1:1,2019-10-06T21:00:00Z,25.0270,-80.6810,1.0,29.69,11111222 
ENP,ioos.station.NOAA.NDBC:BOBF1:1,2019-10-06T22:00:00Z,25.0270,-80.6810,1.0,29.96,11111222 
ENP,ioos.station.NOAA.NDBC:BOBF1:1,2019-10-06T23:00:00Z,25.0270,-80.6810,1.0,29.62,11111222 
ENP,ioos.station.NOAA.NDBC:BOBF1:1,2019-10-07T00:00:00Z,25.0270,-80.6810,1.0,29.42,11111222 
ENP,ioos.station.NOAA.NDBC:BOBF1:1,2019-10-07T01:00:00Z,25.0270,-80.6810,1.0,29.31,11111222 
ENP,ioos.station.NOAA.NDBC:BOBF1:1,2019-10-07T02:00:00Z,25.0270,-80.6810,1.0,28.98,11111222 
ENP,ioos.station.NOAA.NDBC:BOBF1:1,2019-10-07T04:00:00Z,25.0270,-80.6810,1.0,28.57,11111222 
ENP,ioos.station.NOAA.NDBC:BOBF1:1,2019-10-07T05:00:00Z,25.0270,-80.6810,1.0,28.51,11111222 
ENP,ioos.station.NOAA.NDBC:BOBF1:1,2019-10-07T06:00:00Z,25.0270,-80.6810,1.0,28.31,11111222 
ENP,ioos.station.NOAA.NDBC:BOBF1:1,2019-10-07T07:00:00Z,25.0270,-80.6810,1.0,28.34,11111222 
ENP,ioos.station.NOAA.NDBC:BOBF1:1,2019-10-07T08:00:00Z,25.0270,-80.6810,1.0,28.35,11111222 
ENP,ioos.station.NOAA.NDBC:BOBF1:1,2019-10-07T09:00:00Z,25.0270,-80.6810,1.0,28.28,11111222 
ENP,ioos.station.NOAA.NDBC:BOBF1:1,2019-10-07T10:00:00Z,25.0270,-80.6810,1.0,28.19,11111222 
ENP,ioos.station.NOAA.NDBC:BOBF1:1,2019-10-07T11:00:00Z,25.0270,-80.6810,1.0,28.11,11111222 
ENP,ioos.station.NOAA.NDBC:BOBF1:1,2019-10-07T12:00:00Z,25.0270,-80.6810,1.0,27.89,11111222 
ENP,ioos.station.NOAA.NDBC:BOBF1:1,2019-10-07T14:00:00Z,25.0270,-80.6810,1.0,27.82,11111222 
ENP,ioos.station.NOAA.NDBC:BOBF1:1,2019-10-07T15:00:00Z,25.0270,-80.6810,1.0,27.8,11111222 
ENP,ioos.station.NOAA.NDBC:BOBF1:1,2019-10-07T16:00:00Z,25.0270,-80.6810,1.0,27.77,11111222 
ENP,ioos.station.NOAA.NDBC:BOBF1:1,2019-10-07T17:00:00Z,25.0270,-80.6810,1.0,27.76,11111222 
ENP,ioos.station.NOAA.NDBC:BOBF1:1,2019-10-07T18:00:00Z,25.0270,-80.6810,1.0,27.79,11111222 
ENP,ioos.station.NOAA.NDBC:BOBF1:1,2019-10-07T19:00:00Z,25.0270,-80.6810,1.0,27.83,11111222 
ENP,ioos.station.NOAA.NDBC:BOBF1:1,2019-10-07T20:00:00Z,25.0270,-80.6810,1.0,27.9,11111222 
ENP,ioos.station.NOAA.NDBC:BOBF1:1,2019-10-07T21:00:00Z,25.0270,-80.6810,1.0,27.94,11111222 
ENP,ioos.station.NOAA.NDBC:BOBF1:1,2019-10-08T00:00:00Z,25.0270,-80.6810,1.0,27.62,11111222 
ENP,ioos.station.NOAA.NDBC:BOBF1:1,2019-10-08T02:00:00Z,25.0270,-80.6810,1.0,27.33,11111222 
ENP,ioos.station.NOAA.NDBC:BOBF1:1,2019-10-08T04:00:00Z,25.0270,-80.6810,1.0,27.12,11111222 
ENP,ioos.station.NOAA.NDBC:BOBF1:1,2019-10-08T06:00:00Z,25.0270,-80.6810,1.0,26.96,11111222 
ENP,ioos.station.NOAA.NDBC:BOBF1:1,2019-10-08T07:00:00Z,25.0270,-80.6810,1.0,26.83,11111222 
ENP,ioos.station.NOAA.NDBC:BOBF1:1,2019-10-08T08:00:00Z,25.0270,-80.6810,1.0,27.03,11111222 
ENP,ioos.station.NOAA.NDBC:BOBF1:1,2019-10-08T09:00:00Z,25.0270,-80.6810,1.0,26.82,11111222 
ENP,ioos.station.NOAA.NDBC:BOBF1:1,2019-10-08T10:00:00Z,25.0270,-80.6810,1.0,26.87,11111222 
ENP,ioos.station.NOAA.NDBC:BOBF1:1,2019-10-08T11:00:00Z,25.0270,-80.6810,1.0,27.02,11111222 
ENP,ioos.station.NOAA.NDBC:BOBF1:1,2019-10-08T12:00:00Z,25.0270,-80.6810,1.0,27.03,11111222 
ENP,ioos.station.NOAA.NDBC:BOBF1:1,2019-10-08T14:00:00Z,25.0270,-80.6810,1.0,27.05,11111222 
ENP,ioos.station.NOAA.NDBC:BOBF1:1,2019-10-08T15:00:00Z,25.0270,-80.6810,1.0,27.13,11111222 
ENP,ioos.station.NOAA.NDBC:BOBF1:1,2019-10-08T16:00:00Z,25.0270,-80.6810,1.0,27.53,11111222 
ENP,ioos.station.NOAA.NDBC:BOBF1:1,2019-10-08T17:00:00Z,25.0270,-80.6810,1.0,27.94,11111222 
ENP,ioos.station.NOAA.NDBC:BOBF1:1,2019-10-08T18:00:00Z,25.0270,-80.6810,1.0,28.45,11111222 
ENP,ioos.station.NOAA.NDBC:BOBF1:1,2019-10-08T19:00:00Z,25.0270,-80.6810,1.0,29.08,11111222 
ENP,ioos.station.NOAA.NDBC:BOBF1:1,2019-10-08T20:00:00Z,25.0270,-80.6810,1.0,29.3,11111222 
ENP,ioos.station.NOAA.NDBC:BOBF1:1,2019-10-08T21:00:00Z,25.0270,-80.6810,1.0,29.39,11111222 
ENP,ioos.station.NOAA.NDBC:BOBF1:1,2019-10-08T22:00:00Z,25.0270,-80.6810,1.0,29.08,11111222 
ENP,ioos.station.NOAA.NDBC:BOBF1:1,2019-10-08T23:00:00Z,25.0270,-80.6810,1.0,28.64,11111222 
ENP,ioos.station.NOAA.NDBC:BOBF1:1,2019-10-09T00:00:00Z,25.0270,-80.6810,1.0,28.43,11111222 
ENP,ioos.station.NOAA.NDBC:BOBF1:1,2019-10-09T02:00:00Z,25.0270,-80.6810,1.0,28.06,11111222 
ENP,ioos.station.NOAA.NDBC:BOBF1:1,2019-10-09T04:00:00Z,25.0270,-80.6810,1.0,27.65,11111222 
ENP,ioos.station.NOAA.NDBC:BOBF1:1,2019-10-09T05:00:00Z,25.0270,-80.6810,1.0,27.49,11111222 
ENP,ioos.station.NOAA.NDBC:BOBF1:1,2019-10-09T06:00:00Z,25.0270,-80.6810,1.0,27.34,11111222 
ENP,ioos.station.NOAA.NDBC:BOBF1:1,2019-10-09T07:00:00Z,25.0270,-80.6810,1.0,27.25,11111222 
ENP,ioos.station.NOAA.NDBC:BOBF1:1,2019-10-09T08:00:00Z,25.0270,-80.6810,1.0,27.21,11111222 
ENP,ioos.station.NOAA.NDBC:BOBF1:1,2019-10-09T09:00:00Z,25.0270,-80.6810,1.0,27.19,11111222 
ENP,ioos.station.NOAA.NDBC:BOBF1:1,2019-10-09T10:00:00Z,25.0270,-80.6810,1.0,27.17,11111222 
ENP,ioos.station.NOAA.NDBC:BOBF1:1,2019-10-09T11:00:00Z,25.0270,-80.6810,1.0,27.25,11111222 
ENP,ioos.station.NOAA.NDBC:BOBF1:1,2019-10-09T13:00:00Z,25.0270,-80.6810,1.0,27.22,11111222 
ENP,ioos.station.NOAA.NDBC:BOBF1:1,2019-10-09T14:00:00Z,25.0270,-80.6810,1.0,27.38,11111222 
ENP,ioos.station.NOAA.NDBC:BOBF1:1,2019-10-09T15:00:00Z,25.0270,-80.6810,1.0,27.89,11111222 
ENP,ioos.station.NOAA.NDBC:BOBF1:1,2019-10-09T16:00:00Z,25.0270,-80.6810,1.0,28.26,11111222 
ENP,ioos.station.NOAA.NDBC:BOBF1:1,2019-10-09T17:00:00Z,25.0270,-80.6810,1.0,28.68,11111222 
ENP,ioos.station.NOAA.NDBC:BOBF1:1,2019-10-09T18:00:00Z,25.0270,-80.6810,1.0,29.41,11111222 
ENP,ioos.station.NOAA.NDBC:BOBF1:1,2019-10-09T19:00:00Z,25.0270,-80.6810,1.0,30.0,11111222 
ENP,ioos.station.NOAA.NDBC:BOBF1:1,2019-10-09T20:00:00Z,25.0270,-80.6810,1.0,30.19,11111222 
ENP,ioos.station.NOAA.NDBC:BOBF1:1,2019-10-09T21:00:00Z,25.0270,-80.6810,1.0,30.24,11111222 
ENP,ioos.station.NOAA.NDBC:BOBF1:1,2019-10-10T00:00:00Z,25.0270,-80.6810,1.0,29.7,11111222 
ENP,ioos.station.NOAA.NDBC:BOBF1:1,2019-10-10T02:00:00Z,25.0270,-80.6810,1.0,29.41,11111222 
ENP,ioos.station.NOAA.NDBC:BOBF1:1,2019-10-10T04:00:00Z,25.0270,-80.6810,1.0,28.77,11111222 
ENP,ioos.station.NOAA.NDBC:BOBF1:1,2019-10-10T05:00:00Z,25.0270,-80.6810,1.0,28.49,11111222 
ENP,ioos.station.NOAA.NDBC:BOBF1:1,2019-10-10T06:00:00Z,25.0270,-80.6810,1.0,28.38,11111222 
ENP,ioos.station.NOAA.NDBC:BOBF1:1,2019-10-10T07:00:00Z,25.0270,-80.6810,1.0,28.26,11111222 
ENP,ioos.station.NOAA.NDBC:BOBF1:1,2019-10-10T08:00:00Z,25.0270,-80.6810,1.0,28.2,11111222 
ENP,ioos.station.NOAA.NDBC:BOBF1:1,2019-10-10T09:00:00Z,25.0270,-80.6810,1.0,28.2,11111222 
ENP,ioos.station.NOAA.NDBC:BOBF1:1,2019-10-10T10:00:00Z,25.0270,-80.6810,1.0,28.22,11111222 
ENP,ioos.station.NOAA.NDBC:BOBF1:1,2019-10-10T11:00:00Z,25.0270,-80.6810,1.0,28.2,11111222 
ENP,ioos.station.NOAA.NDBC:BOBF1:1,2019-10-10T12:00:00Z,25.0270,-80.6810,1.0,28.23,11111222 
ENP,ioos.station.NOAA.NDBC:BOBF1:1,2019-10-10T13:00:00Z,25.0270,-80.6810,1.0,28.34,11111222 
ENP,ioos.station.NOAA.NDBC:BOBF1:1,2019-10-10T15:00:00Z,25.0270,-80.6810,1.0,28.64,11111222 
ENP,ioos.station.NOAA.NDBC:BOBF1:1,2019-10-10T16:00:00Z,25.0270,-80.6810,1.0,29.12,11111222 
ENP,ioos.station.NOAA.NDBC:BOBF1:1,2019-10-10T17:00:00Z,25.0270,-80.6810,1.0,29.59,11111222 
ENP,ioos.station.NOAA.NDBC:BOBF1:1,2019-10-10T18:00:00Z,25.0270,-80.6810,1.0,29.89,11111222 
ENP,ioos.station.NOAA.NDBC:BOBF1:1,2019-10-10T19:00:00Z,25.0270,-80.6810,1.0,30.31,11111222 
ENP,ioos.station.NOAA.NDBC:BOBF1:1,2019-10-10T20:00:00Z,25.0270,-80.6810,1.0,30.88,11111222 
ENP,ioos.station.NOAA.NDBC:BOBF1:1,2019-10-10T21:00:00Z,25.0270,-80.6810,1.0,31.03,11111222 
ENP,ioos.station.NOAA.NDBC:BOBF1:1,2019-10-10T22:00:00Z,25.0270,-80.6810,1.0,30.95,11111222 
ENP,ioos.station.NOAA.NDBC:BOBF1:1,2019-10-10T23:00:00Z,25.0270,-80.6810,1.0,29.74,11111222 
ENP,ioos.station.NOAA.NDBC:BOBF1:1,2019-10-11T00:00:00Z,25.0270,-80.6810,1.0,29.69,11111222 
ENP,ioos.station.NOAA.NDBC:BOBF1:1,2019-10-11T01:00:00Z,25.0270,-80.6810,1.0,29.94,11111222 
ENP,ioos.station.NOAA.NDBC:BOBF1:1,2019-10-11T02:00:00Z,25.0270,-80.6810,1.0,30.04,11111222 
ENP,ioos.station.NOAA.NDBC:BOBF1:1,2019-10-11T04:00:00Z,25.0270,-80.6810,1.0,29.7,11111222 
ENP,ioos.station.NOAA.NDBC:BOBF1:1,2019-10-11T05:00:00Z,25.0270,-80.6810,1.0,29.22,11111222 
ENP,ioos.station.NOAA.NDBC:BOBF1:1,2019-10-11T06:00:00Z,25.0270,-80.6810,1.0,29.31,11111222 
ENP,ioos.station.NOAA.NDBC:BOBF1:1,2019-10-11T07:00:00Z,25.0270,-80.6810,1.0,29.05,11111222 
ENP,ioos.station.NOAA.NDBC:BOBF1:1,2019-10-11T08:00:00Z,25.0270,-80.6810,1.0,28.68,11111222 
ENP,ioos.station.NOAA.NDBC:BOBF1:1,2019-10-11T09:00:00Z,25.0270,-80.6810,1.0,28.48,11111222 
ENP,ioos.station.NOAA.NDBC:BOBF1:1,2019-10-11T10:00:00Z,25.0270,-80.6810,1.0,28.38,11111222 
ENP,ioos.station.NOAA.NDBC:BOBF1:1,2019-10-11T11:00:00Z,25.0270,-80.6810,1.0,28.27,11111222 
ENP,ioos.station.NOAA.NDBC:BOBF1:1,2019-10-11T12:00:00Z,25.0270,-80.6810,1.0,28.6,11111222 
ENP,ioos.station.NOAA.NDBC:BOBF1:1,2019-10-11T13:00:00Z,25.0270,-80.6810,1.0,28.86,11111222 
ENP,ioos.station.NOAA.NDBC:BOBF1:1,2019-10-11T14:00:00Z,25.0270,-80.6810,1.0,29.06,11111222 
ENP,ioos.station.NOAA.NDBC:BOBF1:1,2019-10-11T15:00:00Z,25.0270,-80.6810,1.0,29.19,11111222 
ENP,ioos.station.NOAA.NDBC:BOBF1:1,2019-10-11T16:00:00Z,25.0270,-80.6810,1.0,29.37,11111222 
ENP,ioos.station.NOAA.NDBC:BOBF1:1,2019-10-11T17:00:00Z,25.0270,-80.6810,1.0,29.9,11111222 
ENP,ioos.station.NOAA.NDBC:BOBF1:1,2019-10-11T18:00:00Z,25.0270,-80.6810,1.0,29.93,11111222 
ENP,ioos.station.NOAA.NDBC:BOBF1:1,2019-10-11T19:00:00Z,25.0270,-80.6810,1.0,29.95,11111222 
ENP,ioos.station.NOAA.NDBC:BOBF1:1,2019-10-11T20:00:00Z,25.0270,-80.6810,1.0,29.65,11111222 
ENP,ioos.station.NOAA.NDBC:BOBF1:1,2019-10-11T21:00:00Z,25.0270,-80.6810,1.0,29.72,11111222 
ENP,ioos.station.NOAA.NDBC:BOBF1:1,2019-10-11T22:00:00Z,25.0270,-80.6810,1.0,29.63,11111222 
ENP,ioos.station.NOAA.NDBC:BOBF1:1,2019-10-11T23:00:00Z,25.0270,-80.6810,1.0,29.38,11111222 
ENP,ioos.station.NOAA.NDBC:BOBF1:1,2019-10-12T00:00:00Z,25.0270,-80.6810,1.0,29.16,11111222 
ENP,ioos.station.NOAA.NDBC:BOBF1:1,2019-10-12T01:00:00Z,25.0270,-80.6810,1.0,28.98,11111222 
ENP,ioos.station.NOAA.NDBC:BOBF1:1,2019-10-12T02:00:00Z,25.0270,-80.6810,1.0,28.85,11111222 
ENP,ioos.station.NOAA.NDBC:BOBF1:1,2019-10-12T04:00:00Z,25.0270,-80.6810,1.0,29.34,11111222 
ENP,ioos.station.NOAA.NDBC:BOBF1:1,2019-10-12T05:00:00Z,25.0270,-80.6810,1.0,28.92,11111222 
ENP,ioos.station.NOAA.NDBC:BOBF1:1,2019-10-12T06:00:00Z,25.0270,-80.6810,1.0,28.46,11111222 
ENP,ioos.station.NOAA.NDBC:BOBF1:1,2019-10-12T07:00:00Z,25.0270,-80.6810,1.0,28.27,11111222 
ENP,ioos.station.NOAA.NDBC:BOBF1:1,2019-10-12T08:00:00Z,25.0270,-80.6810,1.0,28.11,11111222 
ENP,ioos.station.NOAA.NDBC:BOBF1:1,2019-10-12T09:00:00Z,25.0270,-80.6810,1.0,28.18,11111222 
ENP,ioos.station.NOAA.NDBC:BOBF1:1,2019-10-12T10:00:00Z,25.0270,-80.6810,1.0,28.17,11111222 
ENP,ioos.station.NOAA.NDBC:BOBF1:1,2019-10-12T11:00:00Z,25.0270,-80.6810,1.0,28.09,11111222 
ENP,ioos.station.NOAA.NDBC:BOBF1:1,2019-10-12T12:00:00Z,25.0270,-80.6810,1.0,27.87,11111222 
ENP,ioos.station.NOAA.NDBC:BOBF1:1,2019-10-12T13:00:00Z,25.0270,-80.6810,1.0,27.74,11111222 
ENP,ioos.station.NOAA.NDBC:BOBF1:1,2019-10-12T14:00:00Z,25.0270,-80.6810,1.0,27.55,11111222 
ENP,ioos.station.NOAA.NDBC:BOBF1:1,2019-10-12T15:00:00Z,25.0270,-80.6810,1.0,27.67,11111222 
ENP,ioos.station.NOAA.NDBC:BOBF1:1,2019-10-12T16:00:00Z,25.0270,-80.6810,1.0,27.94,11111222 
ENP,ioos.station.NOAA.NDBC:BOBF1:1,2019-10-12T17:00:00Z,25.0270,-80.6810,1.0,28.24,11111222 
ENP,ioos.station.NOAA.NDBC:BOBF1:1,2019-10-12T18:00:00Z,25.0270,-80.6810,1.0,28.64,11111222 
ENP,ioos.station.NOAA.NDBC:BOBF1:1,2019-10-12T19:00:00Z,25.0270,-80.6810,1.0,29.04,11111222 
ENP,ioos.station.NOAA.NDBC:BOBF1:1,2019-10-12T20:00:00Z,25.0270,-80.6810,1.0,29.38,11111222 
ENP,ioos.station.NOAA.NDBC:BOBF1:1,2019-10-12T21:00:00Z,25.0270,-80.6810,1.0,29.36,11111222 
ENP,ioos.station.NOAA.NDBC:BOBF1:1,2019-10-12T22:00:00Z,25.0270,-80.6810,1.0,29.14,11111222 
ENP,ioos.station.NOAA.NDBC:BOBF1:1,2019-10-12T23:00:00Z,25.0270,-80.6810,1.0,28.72,11111222 
ENP,ioos.station.NOAA.NDBC:BOBF1:1,2019-10-13T00:00:00Z,25.0270,-80.6810,1.0,28.29,11111222 
ENP,ioos.station.NOAA.NDBC:BOBF1:1,2019-10-13T01:00:00Z,25.0270,-80.6810,1.0,28.02,11111222 
ENP,ioos.station.NOAA.NDBC:BOBF1:1,2019-10-13T02:00:00Z,25.0270,-80.6810,1.0,28.24,11111222 
ENP,ioos.station.NOAA.NDBC:BOBF1:1,2019-10-13T04:00:00Z,25.0270,-80.6810,1.0,28.57,11111222 
ENP,ioos.station.NOAA.NDBC:BOBF1:1,2019-10-13T05:00:00Z,25.0270,-80.6810,1.0,28.36,11111222 
ENP,ioos.station.NOAA.NDBC:BOBF1:1,2019-10-13T06:00:00Z,25.0270,-80.6810,1.0,28.1,11111222 
ENP,ioos.station.NOAA.NDBC:BOBF1:1,2019-10-13T07:00:00Z,25.0270,-80.6810,1.0,27.68,11111222 
ENP,ioos.station.NOAA.NDBC:BOBF1:1,2019-10-13T08:00:00Z,25.0270,-80.6810,1.0,27.54,11111222 
ENP,ioos.station.NOAA.NDBC:BOBF1:1,2019-10-13T09:00:00Z,25.0270,-80.6810,1.0,27.36,11111222 
ENP,ioos.station.NOAA.NDBC:BOBF1:1,2019-10-13T10:00:00Z,25.0270,-80.6810,1.0,27.38,11111222 
ENP,ioos.station.NOAA.NDBC:BOBF1:1,2019-10-13T11:00:00Z,25.0270,-80.6810,1.0,27.41,11111222 
ENP,ioos.station.NOAA.NDBC:BOBF1:1,2019-10-13T12:00:00Z,25.0270,-80.6810,1.0,27.21,11111222 
ENP,ioos.station.NOAA.NDBC:BOBF1:1,2019-10-13T13:00:00Z,25.0270,-80.6810,1.0,26.92,11111222 
ENP,ioos.station.NOAA.NDBC:BOBF1:1,2019-10-13T14:00:00Z,25.0270,-80.6810,1.0,27.01,11111222 